Home   Weather   Port Moresby   Past weeks
Flag for Papua New Guinea

Past Weather in Port Moresby, Papua New Guinea — Yesterday and Last 2 Weeks

Now
75 °F

Mostly cloudy.


Feels Like: 74 °F
Forecast: 84 / 75 °F
Wind: 17 mph from South

Location: Moresby

Current Time: Jul 17, 2019 at 6:34:27 am

Latest Report: Jul 17, 2019 at 5:00 am


Visibility: N/A

Pressure: 29.86 "Hg

Humidity: 94%

Dew Point: 73 °F

Location of Port MoresbyLocation

Past Weather in Port Moresby — Graph

°F

Port Moresby Temperature Yesterday

Maximum temperature yesterday: 81 °F (at 9:00 am)
Minimum temperature yesterday: 75 °F (at 2:00 am)
Average temperature yesterday: 77 °F

High & Low Weather Summary for the Past Weeks

 TemperatureHumidityPressure
High88 °F (Jul 11, 1:00 pm)100% (Jul 7, 6:00 am)30.01 "Hg (Jul 7, 6:00 am)
Low68 °F (Jul 11, 11:00 pm)49% (Jul 11, 1:00 pm)29.80 "Hg (Jul 9, 2:00 pm)
Average78 °F82%29.90 "Hg
* Reported Jul 2 5:00 am — Jul 17 5:00 am, Port Moresby. Weather by CustomWeather, © 2019

Note: Actual official high and low records may vary slightly from our data, if they occured in-between our weather recording intervals... More about our weather records

Advertising

Port Moresby Weather History for the Previous 24 Hours

Scroll right to see more
 ConditionsComfort  
Time TempWeatherWind HumidityBarometerVisibility
5:00 am
Wed, Jul 17
75 °FMostly cloudy.17 mph94%29.86 "HgN/A
3:00 am75 °FOvercast.10 mph94%29.86 "HgN/A
2:00 am75 °FMostly cloudy.13 mph94%29.86 "HgN/A
1:00 am75 °FPassing clouds.12 mph94%29.86 "HgN/A
12:00 am75 °FPassing clouds.17 mph94%29.89 "HgN/A
11:00 pm
Tue, Jul 16
75 °FPassing clouds.17 mph94%29.89 "HgN/A
10:00 pm75 °FPassing clouds.17 mph94%29.89 "HgN/A
9:00 pm75 °FPassing clouds.12 mph94%29.89 "HgN/A
8:00 pm77 °FPassing clouds.12 mph83%29.83 "HgN/A
7:00 pm77 °FPassing clouds.12 mph89%29.83 "HgN/A
6:00 pm77 °FScattered clouds.12 mph89%29.83 "HgN/A
5:00 pm79 °FScattered clouds.17 mph89%29.83 "HgN/A
4:00 pm79 °FScattered clouds.17 mph89%29.80 "HgN/A
2:00 pm81 °FBroken clouds.17 mph84%29.80 "HgN/A
1:00 pm81 °FScattered clouds.23 mph84%29.83 "HgN/A
10:00 am81 °FScattered clouds.15 mph79%29.89 "HgN/A
9:00 am81 °FScattered clouds.17 mph79%29.89 "HgN/A
8:00 am77 °FScattered clouds.15 mph83%29.89 "HgN/A
7:00 am75 °FScattered clouds.14 mph89%29.86 "HgN/A
6:00 am75 °FPassing clouds.14 mph89%29.83 "HgN/A
Weather by CustomWeather, © 2019

See weather overview

LIVE PARTIAL LUNAR ECLIPSE – Watch the eclipse as it happens